[[{"header":{"parameterUnit":"m.s-1","parameterCategory":1,"la1":30.2991,"la2":30.254,"lo1":-89.0895,"lo2":-89.0444,"dy":0.0017,"dx":0.0017,"nx":28,"ny":28,"refTime":"2024-04-26T21:00:00:Z","depth":0,"parameterNumber":2,"parameterNumberName":"U-component_of_WINDS"},"data":[0,0,0,0,0,0,0,0,0,0,0,0,0,0,0,0,0,0,0,0,0,0,0,0,0,0,0,0,0,0,0,0,0,0,0,0,0,0,0,0,0,0,0,0,0,0,0,0,0,0,0,0,0,0,0,0,0,0,-7.2756,-7.2757,0,-7.2821,-7.2822,-7.2823,-7.2792,-7.2791,-7.2789,-7.2787,-7.2849,-7.2852,-7.2855,0,0,0,0,0,0,0,0,0,0,0,0,0,-7.2601,-7.2604,-7.2756,-7.2757,-7.2758,-7.2821,-7.2822,-7.2823,-7.2792,-7.279,-7.2788,-7.2787,-7.2848,-7.2852,-7.2856,0,0,0,0,0,0,0,0,0,0,0,0,0,-7.2668,-7.2605,-7.2756,-7.275,-7.275,-7.2821,-7.2822,-7.2823,-7.2793,-7.279,-7.2788,-7.2786,-7.2847,-7.2851,-7.2856,-7.2935,0,0,-7.2871,-7.2873,0,0,0,0,0,0,0,0,-7.2664,-7.2673,-7.275,-7.2751,-7.2751,-7.2796,-7.279,-7.286,-7.2793,-7.2777,-7.2787,-7.2784,-7.2833,-7.2839,-7.2856,-7.2938,-7.294,-7.2871,-7.2874,-7.2876,-7.2877,0,0,0,0,0,0,0,-7.2659,-7.267,-7.2782,-7.2751,-7.2752,-7.2743,-7.275,-7.2803,-7.2818,-7.2778,-7.2776,-7.2784,-7.2833,-7.2852,-7.2858,-7.2941,-7.2871,-7.2875,-7.2878,-7.288,-7.309,-7.3092,0,0,0,0,0,0,-7.2655,-7.2667,-7.278,-7.2784,-7.2701,-7.2748,-7.2756,-7.2784,-7.2817,-7.282,-7.2786,-7.2783,-7.2845,-7.2852,-7.286,-7.2952,-7.2876,-7.288,-7.2883,-7.3087,-7.309,-7.3093,0,0,0,0,0,0,-7.2652,-7.2666,-7.2777,-7.2725,-7.2738,-7.2753,-7.2786,-7.2787,-7.2805,-7.2824,-7.2825,-7.2803,-7.2843,-7.2853,-7.2917,-7.2954,-7.2883,-7.2887,-7.3084,-7.3088,-7.3092,-7.3139,0,0,0,0,0,0,-7.2648,-7.2665,-7.2695,-7.2726,-7.2741,-7.2834,-7.2788,-7.279,-7.2814,-7.281,-7.284,-7.2842,-7.2842,-7.291,-7.2921,-7.2959,-7.2891,-7.308,-7.3086,-7.3091,-7.3134,-7.3144,-7.3153,0,0,0,0,0,-7.2642,-7.2705,-7.2697,-7.2711,-7.278,-7.2836,-7.2845,-7.2844,-7.2818,-7.2848,-7.286,-7.2841,-7.2949,-7.2916,-7.2929,-7.2969,-7.3078,-7.3084,-7.309,-7.313,-7.3142,-7.3153,0,0,0,0,0,0,-7.2676,-7.2709,-7.27,-7.2775,-7.2803,-7.2831,-7.2868,-7.2858,-7.2893,-7.2887,-7.2884,-7.2891,-7.2957,-7.297,-7.2933,-7.3047,-7.3009,-7.3018,-7.3035,-7.3047,-7.3056,-7.305,-7.2895,0,0,0,0,0,-7.2693,-7.2737,-7.2763,-7.2826,-7.2841,-7.2853,-7.2877,-7.2875,-7.2903,-7.2915,-7.2931,-7.2958,-7.2998,-7.3024,-7.3062,-7.3138,-7.3143,-7.3172,-7.3181,-7.3189,-7.3195,-7.3235,-7.3248,-7.3113,-7.3113,-7.3113,0,0,-7.2726,-7.2749,-7.2777,-7.2833,-7.2855,-7.2899,-7.2862,-7.2911,-7.2943,-7.2921,-7.2982,-7.2996,-7.3026,-7.3096,-7.3127,-7.3109,-7.3235,-7.3197,-7.3203,-7.3205,-7.3243,-7.3256,-7.3267,-7.3118,-7.3117,-7.3116,0,0,-7.2808,-7.2832,-7.2887,-7.291,-7.2945,-7.2953,-7.2966,-7.2997,-7.3005,-7.3067,-7.3051,-7.309,-7.3159,-7.3181,-7.3201,-7.3297,-7.328,-7.331,-7.3356,-7.3396,-7.3406,-7.3415,-7.3447,-7.3458,-7.3317,-7.3317,-7.3317,0,-7.2844,-7.2912,-7.2916,-7.2966,-7.299,-7.2976,-7.3031,-7.3053,-7.3097,-7.3114,-7.3094,-7.3181,-7.3201,-7.3275,-7.3298,-7.3316,-7.333,-7.3303,-7.3405,-7.3414,-7.3423,-7.3453,-7.3465,-7.332,-7.332,-7.3319,-7.3319,0,-7.2954,-7.3001,-7.3041,-7.3087,-7.3116,-7.3169,-7.3179,-7.3209,-7.3206,-7.3215,-7.3278,-7.3302,-7.3344,-7.3363,-7.3359,-7.3437,-7.3424,-7.3405,-7.3366,-7.3439,-7.3466,-7.3478,-7.3324,-7.3323,-7.3322,-7.3321,0,0,-7.3054,-7.3104,-7.3118,-7.3138,-7.3177,-7.3213,-7.3265,-7.3309,-7.3333,-7.3366,-7.3407,-7.3469,-7.3451,-7.3474,-7.3474,-7.3509,-7.358,-7.3485,-7.3486,-7.3499,-7.3665,-7.3677,-7.369,-7.3572,-7.3575,-7.3576,-7.3662,0,-7.3137,-7.3229,-7.3235,-7.3317,-7.336,-7.335,-7.3395,-7.3423,-7.3435,-7.3472,-7.3485,-7.3527,-7.3503,-7.3517,-7.3551,-7.3564,-7.3613,-7.3559,-7.3608,-7.361,-7.3597,-7.3705,-7.3717,-7.3796,-7.3673,-7.3675,-7.3676,0,-7.3245,-7.3282,-7.337,-7.3403,-7.3422,-7.3462,-7.3503,-7.354,-7.3572,-7.3578,-7.3606,-7.3601,-7.3653,-7.3617,-7.3688,-7.3651,-7.3673,-7.3683,-7.3686,-7.3686,-7.3644,-7.3705,-7.3821,-7.3832,-7.3694,-7.3692,-7.3691,0,-7.3305,-7.3378,-7.344,-7.3458,-7.35,-7.3528,-7.3547,-7.3577,-7.3603,-7.3639,-7.3655,-7.3697,-7.3718,-7.375,-7.3756,-7.373,-7.3827,-7.3791,-7.3831,-7.3831,-7.3847,-7.3845,-7.3965,-7.3869,-7.3868,-7.3868,-7.3868,0,-7.3395,-7.3447,-7.3468,-7.3505,-7.3564,-7.3571,-7.3629,-7.3646,-7.3673,-7.3713,-7.3707,-7.3744,-7.3752,-7.3791,-7.3796,-7.3853,-7.3864,-7.3869,-7.3868,-7.3867,-7.3866,-7.3877,-7.387,-7.3871,-7.3871,-7.387,-7.387,0,-7.347,-7.3486,-7.3552,-7.3587,-7.3598,-7.3639,-7.3669,-7.3704,-7.3718,-7.3768,-7.378,-7.3799,-7.3845,-7.3856,-7.3909,-7.3913,-7.3979,-7.3976,-7.3968,-7.3967,-7.4005,-7.4,-7.4132,-7.4149,-7.4045,-7.4046,-7.4047,0,-7.3523,-7.3564,-7.3605,-7.3632,-7.3652,-7.3696,-7.3723,-7.3734,-7.3762,-7.3803,-7.3833,-7.3879,-7.3915,-7.3987,-7.4005,-7.4046,-7.4042,-7.4086,-7.4047,-7.4044,-7.4038,-7.4034,-7.4037,-7.4091,-7.4092,-7.4093,-7.4094,0,-7.3616,-7.3623,-7.3663,-7.3707,-7.3741,-7.3776,-7.3809,-7.3831,-7.3846,-7.3878,-7.3925,-7.3954,-7.401,-7.4054,-7.4096,-7.4114,-7.4105,-7.4107,-7.4117,-7.4113,-7.4106,-7.4108,-7.3984,-7.4102,-7.4101,-7.4101,-7.41,-7.41,-7.3679,-7.3715,-7.375,-7.3795,-7.3823,-7.3854,-7.3889,-7.3908,-7.3948,-7.3995,-7.4,-7.405,-7.4083,-7.4139,-7.416,-7.4199,-7.4185,-7.4201,-7.4204,-7.4207,-7.4209,-7.4104,-7.4207,-7.4206,-7.4206,-7.4206,-7.4206,0,-7.3769,-7.3792,-7.3834,-7.3882,-7.3918,-7.3912,-7.3949,-7.3978,-7.4024,-7.4056,-7.4092,-7.4147,-7.4191,-7.4214,-7.4257,-7.4284,-7.4281,-7.4294,-7.429,-7.4294,-7.422,-7.4205,-7.4296,-7.4296,-7.4296,-7.4296,-7.4296,-7.4296,-7.3819,-7.3879,-7.389,-7.3963,-7.3986,-7.4037,-7.4058,-7.4087,-7.4113,-7.4174,-7.4211,-7.4228,-7.4256,-7.4302,-7.4341,-7.4347,-7.4361,-7.4376,-7.4379,-7.4309,-7.4299,-7.429,-7.4276,-7.438,-7.438,-7.4449,-7.445,-7.445]},{"header":{"parameterUnit":"m.s-1","parameterCategory":1,"la1":30.2991,"la2":30.254,"lo1":-89.0895,"lo2":-89.0444,"dy":0.0017,"dx":0.0017,"nx":28,"ny":28,"refTime":"2024-04-26T21:00:00:Z","depth":0,"parameterNumber":3,"parameterNumberName":"V-component_of_WINDS"},"data":[0,0,0,0,0,0,0,0,0,0,0,0,0,0,0,0,0,0,0,0,0,0,0,0,0,0,0,0,0,0,0,0,0,0,0,0,0,0,0,0,0,0,0,0,0,0,0,0,0,0,0,0,0,0,0,0,0,0,4.3068,4.3069,0,4.3124,4.3125,4.3125,4.3158,4.3158,4.3158,4.3158,4.3211,4.3213,4.3214,0,0,0,0,0,0,0,0,0,0,0,0,0,4.2989,4.299,4.3068,4.3069,4.307,4.3124,4.3125,4.3125,4.3157,4.3158,4.3158,4.3158,4.3211,4.3213,4.3214,0,0,0,0,0,0,0,0,0,0,0,0,0,4.3032,4.2991,4.3068,4.3092,4.3095,4.3124,4.3125,4.3126,4.3157,4.3158,4.3158,4.3158,4.3211,4.3212,4.3214,4.3222,0,0,4.322,4.3221,0,0,0,0,0,0,0,0,4.3029,4.3035,4.3088,4.3091,4.3094,4.3134,4.3116,4.3158,4.3157,4.3134,4.3158,4.3158,4.3185,4.3189,4.3199,4.3225,4.3227,4.322,4.3222,4.3222,4.3223,0,0,0,0,0,0,0,4.3026,4.3033,4.309,4.3089,4.3092,4.31,4.3106,4.3124,4.3157,4.3136,4.3138,4.3145,4.3187,4.3197,4.3201,4.3228,4.322,4.3222,4.3223,4.3224,4.3265,4.3265,0,0,0,0,0,0,4.302,4.303,4.3088,4.3092,4.3062,4.3101,4.3109,4.3121,4.3157,4.3163,4.3144,4.3146,4.3194,4.3198,4.3203,4.3216,4.3222,4.3224,4.3225,4.3266,4.3265,4.3265,0,0,0,0,0,0,4.3018,4.3025,4.3086,4.3062,4.307,4.3103,4.3116,4.3122,4.3132,4.3164,4.317,4.3149,4.3194,4.32,4.3218,4.3218,4.3225,4.3227,4.3266,4.3265,4.3265,4.3242,0,0,0,0,0,0,4.3016,4.3024,4.3027,4.3062,4.3071,4.3101,4.3116,4.3123,4.3136,4.3139,4.317,4.3175,4.3195,4.3215,4.322,4.3221,4.3228,4.3266,4.3266,4.3265,4.3243,4.3241,4.3239,0,0,0,0,0,4.3013,4.3017,4.3027,4.3034,4.3076,4.3101,4.3106,4.313,4.3136,4.314,4.3161,4.3174,4.3218,4.3217,4.3222,4.3224,4.3266,4.3266,4.3265,4.3243,4.3241,4.3239,0,0,0,0,0,0,4.298,4.3022,4.3034,4.3049,4.3071,4.3106,4.3111,4.3126,4.3146,4.3147,4.3175,4.3182,4.3197,4.3213,4.3211,4.3235,4.3243,4.3244,4.3225,4.3223,4.3221,4.3217,4.323,0,0,0,0,0,4.2975,4.2992,4.3027,4.3038,4.3048,4.3078,4.3089,4.3106,4.313,4.3139,4.3161,4.3182,4.3201,4.3213,4.3232,4.3245,4.3253,4.325,4.3248,4.3247,4.3247,4.3258,4.3257,4.3265,4.3265,4.3265,0,0,4.2963,4.2989,4.2997,4.3032,4.3051,4.3068,4.3085,4.3102,4.3115,4.3141,4.316,4.3177,4.3203,4.322,4.3228,4.3233,4.3247,4.3246,4.3245,4.3246,4.3257,4.3257,4.3256,4.3265,4.3265,4.3265,0,0,4.2952,4.2973,4.2985,4.3004,4.3034,4.3054,4.3057,4.3091,4.3104,4.3124,4.3144,4.316,4.3191,4.321,4.3223,4.3223,4.3237,4.3228,4.3219,4.3229,4.3229,4.3228,4.3229,4.3229,4.3229,4.3229,4.3229,0,4.2934,4.2962,4.2989,4.3005,4.302,4.3047,4.306,4.3077,4.3111,4.312,4.3126,4.3168,4.3187,4.321,4.321,4.322,4.3224,4.3224,4.3227,4.3227,4.3227,4.3228,4.3228,4.3227,4.3228,4.3228,4.3228,0,4.2939,4.2958,4.2964,4.2998,4.3014,4.3028,4.3058,4.3071,4.3087,4.3107,4.3128,4.3152,4.3178,4.3184,4.3199,4.321,4.3212,4.3222,4.323,4.3224,4.3226,4.3227,4.3226,4.3226,4.3227,4.3227,0,0,4.2906,4.2958,4.296,4.2977,4.3013,4.3028,4.3044,4.3071,4.3082,4.3105,4.312,4.3148,4.3158,4.3174,4.3191,4.32,4.32,4.3209,4.321,4.3207,4.3215,4.3208,4.3208,4.321,4.321,4.321,4.3213,0,4.2901,4.2933,4.2959,4.2981,4.3,4.3027,4.3041,4.3065,4.3085,4.3103,4.3124,4.3144,4.3156,4.3166,4.3175,4.3198,4.3202,4.3198,4.3224,4.3225,4.3217,4.3208,4.32,4.3202,4.3214,4.3214,4.3214,0,4.2898,4.2923,4.2947,4.2985,4.2993,4.3006,4.3034,4.3051,4.308,4.3093,4.3112,4.3131,4.315,4.3158,4.3185,4.3182,4.3194,4.3207,4.3208,4.3211,4.3219,4.3212,4.3203,4.3203,4.3215,4.3215,4.3215,0,4.2874,4.2913,4.2933,4.2947,4.299,4.2999,4.3017,4.3046,4.3061,4.3086,4.3096,4.3122,4.3136,4.3155,4.3181,4.3184,4.3206,4.3215,4.3218,4.3218,4.3221,4.3221,4.3214,4.3228,4.3228,4.3228,4.3228,0,4.2865,4.2879,4.2923,4.2936,4.2953,4.2984,4.3,4.302,4.3046,4.3063,4.3087,4.3103,4.3136,4.3155,4.3175,4.3196,4.3202,4.3213,4.3219,4.3212,4.321,4.322,4.3221,4.3229,4.3229,4.3228,4.3228,0,4.284,4.287,4.2895,4.2935,4.2945,4.2956,4.2991,4.3004,4.3026,4.3048,4.3055,4.3089,4.3114,4.3142,4.3174,4.3188,4.3208,4.3215,4.3198,4.3202,4.3204,4.3203,4.3203,4.3205,4.3217,4.3217,4.3217,0,4.2833,4.2845,4.2888,4.2902,4.292,4.2942,4.2959,4.299,4.3006,4.3041,4.3051,4.3078,4.3101,4.3139,4.3166,4.3192,4.3201,4.3199,4.3205,4.3198,4.3202,4.3201,4.3203,4.3197,4.3197,4.3197,4.3197,0,4.2817,4.2832,4.2856,4.2886,4.2906,4.293,4.2955,4.2965,4.3002,4.3019,4.3046,4.3064,4.3099,4.3126,4.3156,4.3175,4.3192,4.3195,4.3197,4.319,4.3181,4.3187,4.3195,4.3195,4.3195,4.3195,4.3195,4.3195,4.2802,4.2815,4.2848,4.2874,4.2897,4.2921,4.2936,4.2962,4.2985,4.3017,4.3034,4.3061,4.3091,4.3134,4.3152,4.3173,4.3179,4.3182,4.3183,4.3183,4.3182,4.3178,4.3179,4.3179,4.3179,4.3179,4.3179,0,4.2788,4.2812,4.2836,4.2872,4.2893,4.291,4.2939,4.2956,4.2979,4.3007,4.303,4.3062,4.3089,4.3119,4.3148,4.3159,4.3168,4.3166,4.3165,4.317,4.3174,4.317,4.3159,4.3159,4.3159,4.3159,4.3159,4.3159,4.2784,4.2807,4.2827,4.2863,4.2886,4.2913,4.2929,4.2952,4.2974,4.3009,4.3032,4.3053,4.3082,4.3114,4.3139,4.3148,4.3158,4.3153,4.3164,4.3168,4.3169,4.3171,4.3167,4.3155,4.3155,4.3158,4.3158,4.3158]}]]